Date String (YYYY-MM-DD hh:mm:ss) UTC,Instrument flags,absolute air pressure of the measurement (hPa),sample flow rate (lpm),inlet stack bypass flow (lpm),air temperature of the measurement (°C),ambient temperature measured by the external sensor (°C),aerosol sample conditioner tube jacket temperature (°C),OPC LED temperature (°C),internal box temperature (°C),relative humidity of the measurement (%),span deviation,mass concentration of particles derived from Lorenz-Mie calculation of OPC scattering (μg/m³),mass concentration of particles derived from Lorenz-Mie calculation of OPC scattering (μg/m³),mass concentration of particles derived from Lorenz-Mie calculation of OPC scattering (μg/m³)
DateTimeUTC,F1_M11,P_M11,Q1_M11,Q2_M11,T1_M11,T2_M11,T3_M11,T4_M11,T5_M11,U1_M11,ZSPAN_M11,X2_M11,X0_M11,X1_M11
2024-02-08 02:00:00,SystemResetWarning,0810.4,5.00,000.00,019.8,019.1,000.0,028.1,021.4,11.0,0000.0,0000.49,0000.88,0000.31
2024-02-08 02:01:00,SystemResetWarning,0810.5,5.00,000.00,019.8,019.1,000.0,028.1,021.4,11.0,0000.0,0000.49,0000.89,0000.32
2024-02-08 02:02:00,SystemResetWarning,0810.4,5.00,000.00,019.8,019.1,000.0,028.1,021.4,10.9,0000.0,0000.47,0000.82,0000.32
2024-02-08 02:03:00,SystemResetWarning,0810.5,5.00,000.00,019.8,019.1,000.0,028.1,021.4,10.6,0000.0,0000.47,0001.75,0000.31
2024-02-08 02:04:00,SystemResetWarning,0810.4,5.00,000.00,019.8,019.1,000.0,028.1,021.4,10.8,0000.0,0000.47,0001.76,0000.31
2024-02-08 02:05:00,SystemResetWarning,0810.5,5.00,000.00,019.8,019.1,000.0,028.1,021.4,11.1,0000.0,0000.46,0001.75,0000.30
2024-02-08 02:06:00,SystemResetWarning,0810.4,5.01,000.00,019.8,019.1,000.0,028.1,021.4,10.8,0000.0,0000.46,0001.76,0000.30
2024-02-08 02:07:00,SystemResetWarning,0810.4,5.01,000.00,019.8,019.1,000.0,028.1,021.4,10.7,0000.0,0000.45,0001.73,0000.31
2024-02-08 02:08:00,SystemResetWarning,0810.4,5.00,000.00,019.8,019.1,000.0,028.1,021.4,10.5,0000.0,0000.43,0001.67,0000.30
2024-02-08 02:09:00,SystemResetWarning,0810.4,5.00,000.00,019.8,019.2,000.0,028.1,021.4,10.3,0000.0,0000.43,0001.66,0000.30
2024-02-08 02:10:00,SystemResetWarning,0810.5,5.00,000.00,019.8,019.2,000.0,028.1,021.4,10.8,0000.0,0000.42,0001.65,0000.30
2024-02-08 02:11:00,SystemResetWarning,0810.4,5.00,000.00,019.8,019.1,000.0,028.1,021.4,10.6,0000.0,0000.41,0001.63,0000.30
2024-02-08 02:12:00,SystemResetWarning,0810.5,5.00,000.00,019.8,019.1,000.0,028.1,021.5,10.5,0000.0,0000.39,0001.58,0000.30
2024-02-08 02:13:00,SystemResetWarning,0810.5,4.99,000.00,019.8,019.1,000.0,028.1,021.5,10.7,0000.0,0000.41,0001.61,0000.30
2024-02-08 02:14:00,SystemResetWarning,0810.5,4.99,000.00,019.8,019.1,000.0,028.1,021.5,10.9,0000.0,0000.41,0000.81,0000.31
2024-02-08 02:15:00,SystemResetWarning,0810.4,5.01,000.00,019.8,019.1,000.0,028.1,021.5,11.1,0000.0,0000.40,0001.34,0000.31
2024-02-08 02:16:00,SystemResetWarning,0810.4,5.01,000.00,019.8,019.1,000.0,028.1,021.5,10.9,0000.0,0000.40,0001.33,0000.30
2024-02-08 02:17:00,SystemResetWarning,0810.4,4.99,000.00,019.8,019.1,000.0,028.1,021.5,10.4,0000.0,0000.38,0001.29,0000.30
2024-02-08 02:18:00,SystemResetWarning,0810.4,4.99,000.00,019.8,019.2,000.0,028.1,021.5,10.6,0000.0,0000.38,0001.29,0000.30
2024-02-08 02:19:00,SystemResetWarning,0810.6,5.02,000.00,019.8,019.2,000.0,028.1,021.5,11.0,0000.0,0000.40,0001.34,0000.31
2024-02-08 02:20:00,SystemResetWarning,0810.6,5.01,000.00,019.8,019.2,000.0,028.1,021.4,10.6,0000.0,0000.40,0001.36,0000.30
2024-02-08 02:21:00,SystemResetWarning,0810.5,4.99,000.00,019.8,019.2,000.0,028.1,021.4,10.8,0000.0,0000.40,0001.67,0000.30
2024-02-08 02:22:00,SystemResetWarning,0810.5,5.01,000.00,019.8,019.1,000.0,028.1,021.4,10.9,0000.0,0000.40,0002.62,0000.30
2024-02-08 02:23:00,SystemResetWarning,0810.5,5.00,000.00,019.8,019.1,000.0,028.1,021.4,11.0,0000.0,0000.40,0002.65,0000.30
2024-02-08 02:24:00,SystemResetWarning,0810.4,5.00,000.00,019.8,019.1,000.0,028.1,021.4,11.7,0000.0,0000.39,0002.62,0000.29
2024-02-08 02:25:00,SystemResetWarning,0810.4,5.00,000.00,019.8,019.1,000.0,028.1,021.4,11.7,0000.0,0000.38,0002.59,0000.29
2024-02-08 02:26:00,SystemResetWarning,0810.5,5.00,000.00,019.8,019.1,000.0,028.1,021.3,11.8,0000.0,0000.37,0001.96,0000.29
2024-02-08 02:27:00,SystemResetWarning,0810.5,4.99,000.00,019.8,019.1,000.0,028.1,021.4,11.6,0000.0,0000.37,0001.81,0000.29
2024-02-08 02:28:00,SystemResetWarning,0810.5,4.99,000.00,019.8,019.1,000.0,028.1,021.4,12.0,0000.0,0000.41,0002.29,0000.30
2024-02-08 02:29:00,SystemResetWarning,0810.5,5.01,000.00,019.8,019.1,000.0,028.1,021.3,11.4,0000.0,0000.42,0002.50,0000.30
2024-02-08 02:30:00,SystemResetWarning,0810.4,5.01,000.00,019.8,019.1,000.0,028.1,021.3,11.4,0000.0,0000.40,0002.45,0000.30
2024-02-08 02:31:00,SystemResetWarning,0810.4,5.00,000.00,019.8,019.1,000.0,028.1,021.3,11.4,0000.0,0000.39,0002.43,0000.29
2024-02-08 02:32:00,SystemResetWarning,0810.5,4.99,000.00,019.7,019.0,000.0,028.1,021.3,12.0,0000.0,0000.38,0002.39,0000.29
2024-02-08 02:33:00,SystemResetWarning,0810.4,5.00,000.00,019.7,019.0,000.0,028.0,021.3,12.6,0000.0,0000.37,0001.26,0000.28
2024-02-08 02:34:00,SystemResetWarning,0810.4,5.00,000.00,019.7,019.0,000.0,028.0,021.3,11.7,0000.0,0000.36,0001.11,0000.27
2024-02-08 02:35:00,SystemResetWarning,0810.4,5.01,000.00,019.7,019.0,000.0,028.0,021.3,11.7,0000.0,0000.36,0001.09,0000.27
2024-02-08 02:36:00,SystemResetWarning,0810.4,5.01,000.00,019.7,019.0,000.0,028.0,021.3,12.5,0000.0,0000.35,0001.08,0000.26
2024-02-08 02:37:00,SystemResetWarning,0810.4,5.00,000.00,019.7,019.0,000.0,028.0,021.2,12.6,0000.0,0000.37,0001.12,0000.27
2024-02-08 02:38:00,SystemResetWarning,0810.4,5.00,000.00,019.7,019.0,000.0,028.0,021.3,12.7,0000.0,0000.36,0001.12,0000.26
2024-02-08 02:39:00,SystemResetWarning,0810.4,4.99,000.00,019.7,019.0,000.0,028.0,021.2,12.9,0000.0,0000.32,0000.62,0000.25
2024-02-08 02:40:00,SystemResetWarning,0810.4,5.00,000.00,019.7,019.0,000.0,028.0,021.2,12.7,0000.0,0000.30,0000.40,0000.25
2024-02-08 02:41:00,SystemResetWarning,0810.5,5.02,000.00,019.6,018.9,000.0,028.0,021.2,12.8,0000.0,0000.32,0000.46,0000.26
2024-02-08 02:42:00,SystemResetWarning,0810.4,5.00,000.00,019.6,018.9,000.0,028.0,021.2,13.0,0000.0,0000.34,0000.51,0000.26
2024-02-08 02:43:00,SystemResetWarning,0810.4,4.99,000.00,019.6,018.9,000.0,028.0,021.2,12.0,0000.0,0000.36,0000.60,0000.26
2024-02-08 02:44:00,SystemResetWarning,0810.4,4.99,000.00,019.6,018.9,000.0,027.9,021.2,12.4,0000.0,0000.38,0000.72,0000.27
2024-02-08 02:45:00,SystemResetWarning,0810.4,5.00,000.00,019.6,018.9,000.0,027.9,021.2,12.3,0000.0,0000.37,0000.74,0000.27
2024-02-08 02:46:00,SystemResetWarning,0810.4,4.99,000.00,019.6,018.9,000.0,027.9,021.2,12.6,0000.0,0000.38,0000.77,0000.27
2024-02-08 02:47:00,SystemResetWarning,0810.5,5.00,000.00,019.6,018.8,000.0,027.9,021.2,12.1,0000.0,0000.39,0000.78,0000.27
2024-02-08 02:48:00,SystemResetWarning,0810.4,5.01,000.00,019.5,018.8,000.0,027.9,021.1,12.1,0000.0,0000.37,0000.74,0000.27
2024-02-08 02:49:00,SystemResetWarning,0810.5,5.01,000.00,019.5,018.8,000.0,027.9,021.0,11.7,0000.0,0000.38,0000.75,0000.27
2024-02-08 02:50:00,SystemResetWarning,0810.4,5.01,000.00,019.5,018.8,000.0,027.9,021.0,11.8,0000.0,0000.39,0000.80,0000.27
2024-02-08 02:51:00,SystemResetWarning,0810.5,5.00,000.00,019.5,018.8,000.0,027.9,021.0,11.2,0000.0,0000.40,0000.84,0000.27
2024-02-08 02:52:00,SystemResetWarning,0810.5,4.99,000.00,019.5,018.8,000.0,027.8,021.0,11.7,0000.0,0000.38,0000.78,0000.26
2024-02-08 02:53:00,SystemResetWarning,0810.6,4.99,000.00,019.5,018.8,000.0,027.8,021.0,12.5,0000.0,0000.37,0000.75,0000.25
2024-02-08 02:54:00,SystemResetWarning,0810.5,5.00,000.00,019.5,018.8,000.0,027.8,021.0,12.1,0000.0,0000.36,0000.67,0000.25
2024-02-08 02:55:00,SystemResetWarning,0810.5,5.00,000.00,019.5,018.8,000.0,027.8,021.0,11.8,0000.0,0000.33,0000.55,0000.24
2024-02-08 02:56:00,SystemResetWarning,0810.5,5.01,000.00,019.5,018.8,000.0,027.8,021.0,11.3,0000.0,0000.32,0000.48,0000.24
2024-02-08 02:57:00,SystemResetWarning,0810.4,5.01,000.00,019.5,018.8,000.0,027.8,021.0,10.6,0000.0,0000.34,0000.51,0000.24
2024-02-08 02:58:00,SystemResetWarning,0810.4,5.00,000.00,019.5,018.8,000.0,027.8,021.0,10.7,0000.0,0000.35,0000.54,0000.23
2024-02-08 02:59:00,SystemResetWarning,0810.4,5.00,000.00,019.5,018.8,000.0,027.8,021.0,11.0,0000.0,0000.34,0000.54,0000.23
